MET994 - Hong Kong to Kuala Lumpur International Airport

Airbus A330-243
787MT
3 hrs 30 mins
1375 nm
Scheduled - M | TU | TH

Bid/PiRep Status

Bid was submitted on Jan 02 2017.

PiRep # 74577: Approved by Dave Nichols on January 3rd, 2017 5:15 UTC

Departure

Departing from
Hong Kong (HKG)
Departure gate
Terminal 1
Scheduled Departure
GMT 0715
Local 1515
METAR VHHH 260300Z 07005KT 9999 FEW030 27/19 Q1011 NOSIG
TAF TAF VHHH 252300Z 2600/2706 06010KT 9000 FEW030 TX29/2606Z TX30/2706Z TN24/2623Z TEMPO 2600/2603 36010KT TEMPO 2603/2609 29010KT TEMPO 2609/2618 12010KT
  • No charts available

Arrival

Arriving at
Kuala Lumpur International Airport (KUL)
Arrival gate
Unassigned
Scheduled Arrival
GMT 1045
Local 1845
METAR WMKK 260300Z 15009KT 100V190 9999 FEW018 SCT140 BKN280 27/24 Q1010 NOSIG
TAF TAF WMKK 252300Z 2600/2706 15005KT 9999 FEW017CB SCT140 BKN280 TEMPO 2600/2603 4000 TSRA FEW015CB PROB30 TEMPO 2606/2610 4000 TSRA FEW015CB

Route Map

Planning Resources

PECA1A SIKOU A202 SAMAS G221 PCA TSN L637 BITOD IKUKO PULIP PULI1V
PECAN V10 ALLEY V31 SURFA V11 IDOSI A1 BUNTA G221 PCA W12 BMT W1 AC L644 CN L642 ENREP M763 TAXUL Y331 PIBOS
SANDI2A SANDI L642 ENREO M763 PIBOS PIBOSA
CH L642 VEPLI UGPEK VPK G584 VKL
PECAN1A PECAN V12 EPDOS L642 ENREP M763 TAXUL Y349 PULIP
Route:
OFP Layout:
Units:
Detailed Navlog:
ETOPS Planning:
Plan Stepclimbs:
Runway Analysis:
Include NOTAMS:
FIR NOTAMS:
Flight Maps:

Return Flights

MET995
Airbus A330-243
1145 GMT

Popularity

Hub Current Bids PiReps this month Total PiReps
KMCI 0 0 2
KLAX 0 0 3
KBOS 0 0 0